Weather in Volok

Russia / Tver Oblast     56°51′17″N   32°02′38″E
temp.,
°C
wind,
m/s
gust,
m/s
humid.,
%
clouds,
%
prec.,
mm/h
press.,
hPa
HPBL,
m
24 may, tue
tue2400:00+4nnw3118249 0.0 1010284
03:00+2nnw2654100 0.0 101195
06:00+5wnw31157100 0.0 1011314
09:00+10nnw51059100 0.0 1011988
12:00+14nnw6103434 0.0 10111731
15:00+15nnw6102964 0.0 10111823
18:00+14n5103346 0.0 10121614
21:00+7n225046 0.0 101342
25 may, wed
wed2500:00+4nne226194 0.0 101514
03:00+3nnw117580 0.0 101610
06:00+4n13740 0.0 101688
09:00+11n24530 0.0 1017739
12:00+15nnw35380 0.0 10161423
15:00+17nnw3638100 0.0 10151794
18:00+17nnw3542100 0.0 10141860
21:00+11se116941 0.0 101310
26 may, thu
thu2600:00+9s227846 0.0 101336
03:00+8s238490 0.0 101166
06:00+10s2682100 0.1 1009163
09:00+13sw4776100 0.3 1007573
12:00+10ssw4998100 2.6 1006633
15:00+11w389295 4.3 1006725
18:00+14w597199 0.9 1003965
21:00+10wsw398449 0.9 1002219
27 may, fri
fri2700:00+10wsw51193100 0.4 1001539
03:00+9w5119436 2.1 1000830
06:00+8w61290100 0.1 1001961
09:00+9wsw61183100 0.2 10011030
12:00+14w6952100 0.6 10011910
15:00+16wsw6940100 0.6 10002421
18:00+15sw4947100 0.0 9992336
21:00+10ssw2679100 0.2 998198
28 may, sat
sat2800:00+8ssw3893100 0.3 997419
03:00+7wsw499357 0.4 997689
06:00+6wsw4888100 0.0 998638
09:00+6sw4884100 0.1 998954
12:00+8sw4975100 0.1 10001281
15:00+9wsw5975100 0.5 10001247
18:00+9sw497082 0.6 10001090
21:00+7ssw3108654 0.8 1001684